Location: Carthage
(33.8834°N, 106.6595°W)
Time: 10:57:37
(UTC+00:00)

SL-16 R/B - Pass Details

Date: 13 February 2026
Orbit: 841 x 845 km, 71.0° (Epoch: 10 March)

Event Time Altitude Azimuth Distance (km) Brightness Sun altitude
Rises 12:21:03 0° 173° (S) 3,380 5.5 -19.6°
Reaches altitude 10° 12:23:43 10° 164° (SSE) 2,449 4.8 -19.1°
Maximum altitude 12:28:36 31° 103° (ESE) 1,430 4.1 -18.1°
Drops below altitude 10° 12:33:31 10° 43° (NE) 2,464 5.1 -17.1°
Sets 12:36:12 0° 33° (NNE) 3,403 5.7 -16.5°
